Observations for Trim Market St
| Time | AQI | Temp °C | Hum % | Pres Pa | CO μg/m³ | H₂S μg/m³ | NO μg/m³ | NO₂ μg/m³ | O₃ μg/m³ | SO₂ μg/m³ | PM1 μg/m³ | PM2.5 μg/m³ | PM10 μg/m³ |
|---|---|---|---|---|---|---|---|---|---|---|---|---|---|
| Monday 17 August 2026 | |||||||||||||
| 02:15 | 2 | 18.9 | 78 | 2,147,483,647 | 0.01 | 0 | 1.83 | 2.87 | 51.6 | 0 | 0 | 1.27 | 3.46 |
| 02:14 | 2 | 18.8 | 78 | 2,147,483,647 | 0.01 | 0 | 1.82 | 2.94 | 53.39 | 0 | 0 | 0.79 | 2.88 |
| 02:12 | 2 | 18.9 | 78 | 2,147,483,647 | 0 | 0 | 1.76 | 2.69 | 54.25 | 0 | 0 | 1.27 | 3.46 |
| 02:10 | 2 | 18.9 | 78 | 2,147,483,647 | 0 | 0 | 1.77 | 2.87 | 51.08 | 0 | 0 | 0.79 | 2.88 |
| 02:09 | 2 | 18.9 | 78 | 2,147,483,647 | 0 | 0 | 1.81 | 2.91 | 51.95 | 0 | 0 | 0.8 | 2.88 |
| 02:08 | 2 | 18.9 | 78 | 2,147,483,647 | 0 | 0 | 1.81 | 2.78 | 55.56 | 0 | 0 | 0.79 | 2.88 |
| 02:02 | 2 | 18.9 | 78 | 2,147,483,647 | 0 | 0 | 1.8 | 2.5 | 54.45 | 0 | 0 | 0.8 | 2.88 |
| 02:00 | 2 | 18.9 | 78 | 2,147,483,647 | 0 | 0 | 1.81 | 2.82 | 50.5 | 0 | 0 | 0.8 | 2.88 |
| 01:59 | 2 | 18.9 | 78 | 2,147,483,647 | 0 | 0 | 1.82 | 2.57 | 51.67 | 0 | 0 | 0.8 | 3.46 |
| 01:57 | 2 | 18.9 | 78 | 2,147,483,647 | 0 | 0 | 1.81 | 2.92 | 53.46 | 0 | 0 | 1.75 | 4.62 |
| 01:48 | 2 | 19 | 78 | 2,147,483,647 | 0 | 0 | 1.62 | 2.3 | 50.31 | 0 | 0 | 1.27 | 3.46 |
| 01:47 | 2 | 19 | 77 | 2,147,483,647 | 0 | 0 | 1.61 | 2.68 | 52.23 | 0 | 0 | 0.8 | 2.87 |
| 01:46 | 2 | 19 | 77 | 174 | 0 | 0 | 1.61 | 2.84 | 52.87 | 0 | 0 | 0.8 | 2.87 |
| 01:45 | 2 | 19 | 77 | 653 | 0.01 | 0 | 1.66 | 2.6 | 50.88 | 0 | 0 | 1.28 | 3.45 |
| 01:44 | 2 | 19 | 77 | 978 | 0 | 0 | 1.76 | 2.87 | 54.03 | 0 | 0 | 0.8 | 2.87 |
| 01:43 | 2 | 19 | 77 | 1,350 | 0 | 0 | 1.81 | 2.41 | 50.17 | 0 | 0 | 0.8 | 2.87 |
| 01:42 | 2 | 19 | 77 | 1,658 | 0 | 0 | 1.81 | 2.68 | 46.55 | 0 | 0 | 0.8 | 2.87 |
| 01:41 | 2 | 19.1 | 77 | 2,021 | 0 | 0 | 1.82 | 2.56 | 52.43 | 0 | 0 | 0.8 | 3.45 |
| 01:40 | 2 | 19.1 | 77 | 2,187 | 0 | 0 | 1.81 | 2.74 | 56.72 | 0 | 0 | 0.8 | 3.45 |
| 01:39 | 2 | 19.1 | 77 | 2,291 | 0 | 0 | 1.74 | 2.54 | 47.94 | 0 | 0 | 0.8 | 2.87 |